{"data":{"norad_id":51996,"intl_designator":"2022-025AS","name":"STARLINK-3538","alt_names":[],"object_type":"PAYLOAD","status":"ACTIVE","operator":null,"country":"US","launch_date":"2022-03-09","launch_site_code":"AFETR","launch_vehicle":null,"mission":null,"orbit_class":"UNKNOWN","rcs_meters":null,"size_class":null,"mass_kg":null,"dimensions":null,"purposes":["comms"],"wikipedia_slug":null,"has_3d_model":false,"image_url":null,"decayed_at":null,"tle_current":{"epoch":"2026-09-19T11:48:55.063872Z","epoch_age_seconds":143258,"freshness":"FRESH","line1":"1 51996U 22025AS  26262.49230398  .00000009  00000+0  11619-4 0  9997","line2":"2 51996  53.1599 214.5590 0001422  94.4786 265.6379 15.33548254250372","mean_motion":15.33548254,"eccentricity":0.0001422,"inclination_deg":53.1599,"raan_deg":214.559,"arg_perigee_deg":94.4786,"mean_anomaly_deg":265.6379,"bstar":1.1619e-5,"rev_number":25037,"period_min":93.89988194007,"perigee_km":464.26285281895,"apogee_km":466.20910809459,"semimajor_km":6843.3729804568,"source":"CELESTRAK","updated_at":"2026-09-20T09:00:39.982565Z"}}}